TIMESTAMP,CO2_1_1_1,H2O_1_1_1,TAU_1_1_1,TAU_SSITC_TEST_1_1_1,H_1_1_1,H_SSITC_TEST_1_1_1,LE_1_1_1,LE_SSITC_TEST_1_1_1,FC_1_1_1,FC_SSITC_TEST_1_1_1,WD_0_0_1,WS_0_0_1,WS_MAX_0_0_1,U_SIGMA_0_0_1,V_SIGMA_0_0_1,W_SIGMA_0_0_1,USTAR_0_0_1,MO_LENGTH_0_0_1,ZL_0_0_1,FETCH_MAX_0_0_1,FETCH_70_0_0_1,FETCH_80_0_0_1,FETCH_90_0_0_1,PA_0_0_1,RH_0_0_1,TA_0_0_1,VPD_0_0_1,T_SONIC_0_0_1,T_SONIC_SIGMA_0_0_1
[yyyymmddHHMMSS],[mmolCO2 mol-1],[mmolH2O mol-1],[kg m-1 s-2],[#],[W m-2],[#],[W m-2],[#],[umolCO2 m-2 s-1],[#],[Decimal degrees],[m s-1],[m s-1],[m s-1],[m s-1],[m s-1],[m s-1],[m],[#],[m],[m],[m],[m],[kPa],[%],[deg C],[hPa],[deg C],[deg C]
20190820003000,387.41135545845304,13.752237404880510,0.14214537906026067,0,-32.636425783962530,0,36.505452935935956,0,0.13136251715119993,2,187.36194114736131,2.2633338055167869,5.3755935458481510,0.72663583445131652,0.69659267869041663,0.52152347099346519,0.35771429555324608,117.03527830991300,0.16234421171441502,92.611485457747577,169.32333233510832,202.63678302262281,253.67720658890650,93.886820373704722,56.222068965517238,19.762413793103462,10.056407903359124,20.403566742875910,0.26368630822714317
20190820010000,388.88180622780919,14.232185190195143,0.13841470628980740,0,-49.773672868404830,0,27.258177126149626,0,4.6856244723213205,0,183.49475695444465,2.4956869097111172,5.7328653742322437,0.77051140175942168,0.65409368899412879,0.50651431879817910,0.35239784680479957,73.380568259262958,0.25892413278772336,93.671638095682781,171.26162947559575,204.95642965178902,256.58112890934012,93.900308220857994,61.898333333333333,18.771000000000015,8.2284891556297097,19.535702499048057,0.36759392129709789
20190820013000,390.11968339057125,14.340649251003301,0.15069593270900489,0,-51.443268803786040,0,24.059088755277390,0,6.4672855958006110,0,184.30146620321219,2.9346043950700960,6.0711296130400543,0.79178121268664947,0.68842680880481832,0.53734003020181298,0.36720494523341296,80.342001418579130,0.23648900530882519,92.338403302077452,168.82405105945688,202.03927085388514,252.92919225702025,93.919514970269105,65.332666666666668,18.033999999999992,7.1487677095354822,18.840496453179298,0.31199489161727534
20190820020000,391.78840057743292,14.241245888953308,0.18331458389257566,0,-61.521377338489955,0,21.733813934085791,0,6.2632524050980409,0,188.78977826601098,3.1204942730596494,6.5440656228974117,0.91608538366967218,0.77694262691283489,0.57527812159380198,0.40463827793366847,89.905470344140767,0.21133308048188471,94.494424557747607,172.76594554253319,206.75671177622863,258.83486849989015,93.942858991842769,66.712333333333333,17.595666666666659,6.6773702896126252,18.402247811784207,0.26848146649295812
20190820023000,393.79512892040532,14.292550839438748,0.16452202210396541,0,-55.863342602240536,0,13.146294056845070,0,6.4115637080677086,0,189.92888905227937,2.9465747904788917,6.2833042780927011,0.83838218314320012,0.68771483445257520,0.51657717893909638,0.38299218209759806,83.973453327990725,0.22626198217415411,98.559536844521134,180.19826730382184,215.65130268302647,269.96984084464782,93.969552821293902,68.884666666666661,17.149999999999977,6.0682753917722474,17.959676178604241,0.28019551240449175
20190820030000,394.77478520076716,14.519853634744026,0.19236722024874844,0,-60.469467078788810,0,8.7858309278904727,0,5.9162557893767334,0,195.40289481480366,3.1711736832570292,6.9094109001551365,0.88713351063455848,0.75114592027262239,0.53525282904258531,0.41396594146387272,97.979904777421766,0.19391731440402779,101.94816470759591,186.39375978494820,223.06572483207597,279.25181754791896,93.989214575737847,70.902333333333331,16.946666666666658,5.6021453812442976,17.777098998175745,0.28347311900402017
20190820033000,396.03511565427516,14.654536583030458,0.19090273700777835,0,-50.119618265670383,0,2.9849572403110987,1,5.2796888462480727,0,201.46816714249195,3.0282297608434394,6.5119755608451451,0.83011622337282565,0.71803860766848904,0.54754598362109641,0.41208080016758125,116.62497110842631,0.16291536726157632,99.748029676997646,182.37121125193644,218.25176161129150,273.22530684115355,94.009242668836805,73.341999999999999,16.562666666666644,5.0088028463404886,17.427275468614425,0.25920876026542983
20190820040000,397.20995125275095,14.839204056154811,0.21954351666943203,0,-53.252572156230933,0,7.5831971307402553,0,7.6262141923546096,0,206.36027133753194,3.0375108413633636,6.5780276255649142,0.90007373691420522,0.77353236599349662,0.57911267266412492,0.44171767593923711,135.21837886140406,0.14051344321672865,100.82315134144325,184.33687654701100,220.60416093157431,276.17023164428940,94.032785358974749,75.254000000000005,16.358999999999980,4.5896736532333877,17.258433018323160,0.26038747165776643
20190820043000,396.77802501388419,14.896701948221368,0.24946289038951910,0,-66.928106153451310,0,10.750405985812421,0,7.9948576042897725,0,206.22211748562702,3.3933784686364188,7.9133472304106958,0.96600467850416749,0.82076312907418225,0.61809372496409554,0.47095448180198718,130.41365297393878,0.14569026759642156,100.73829114557202,184.18172504418706,220.41848420894078,275.93778642075370,94.047069914279518,74.793000000000006,16.518666666666661,4.7229362680472127,17.417537746853327,0.25045863772450927
20190820050000,396.77497549931405,15.003543557906255,0.30630305432390648,0,-62.408827541265083,0,2.9139982963939088,2,6.5470579857363731,0,211.65091227797217,3.7913771840103565,7.6932145292656422,1.1413644277742017,0.93540318491534913,0.68415493974745856,0.52201090072044110,190.46536520058322,9.97556693837259451E-002,100.84978667306571,184.38557442812018,220.66243985764962,276.24318994410675,94.052817132161465,74.492666666666665,16.695333333333338,4.8331877648776054,17.590160704718699,0.25238870643904904
20190820053000,396.33478519796080,15.095619739615099,0.34789210308323198,0,-76.107088725878398,0,14.314244786451285,0,9.8308892003818524,0,216.04751490096371,3.8930381369255489,8.1553431185792071,1.0707283854423804,0.97534746546177364,0.73288823724487684,0.55638996283250786,189.12058538302293,0.10046500205950400,100.44495491010841,183.64541285096567,219.77665548970020,275.13429302643095,94.051392336249592,74.680999999999997,16.751666666666665,4.8146983174484035,17.646713633579452,0.24059426947195880
20190820060000,397.17839454387996,15.119188137478567,0.39571749446650717,0,-75.586499889767239,0,17.266494561332056,0,10.194250737695137,0,218.29925687754940,3.6903904363147491,7.9706585348386580,1.1570293492207107,0.96945720828244952,0.74044230498946251,0.59325393452018071,230.84634079333324,8.23058313798869373E-002,104.87076167183744,191.73719915007555,229.46045701867698,287.25726341901736,94.057044586005247,75.425666666666672,16.620999999999981,4.6344571002194677,17.501525920632162,0.21793682509801179
20190820063000,397.94449442743911,15.144503759293073,0.28339207072103439,0,-58.860466987144115,0,11.137323874232264,0,7.4910888929503736,0,218.26640037454615,3.5262253260486180,7.3158333986729156,0.99260924160460939,0.82741478304925542,0.62705769072817497,0.50185152900535279,179.44821262884716,0.10588012954633162,104.77775819898504,191.56715913976504,229.25696255515987,287.00251249822543,94.054559825086812,76.676666666666662,16.388333333333321,4.3338989038109599,17.298090258280467,0.21311034029637707
20190820070000,398.86495826913568,15.171918785262195,0.28787542131840588,0,-65.596349668193653,0,8.4657249900190958,0,7.6427944035078559,0,217.84296063666633,3.3656390855864307,6.7463474520281848,0.94835658017795321,0.77095444898892240,0.60335307431783014,0.50566513709338712,164.72271912239384,0.11534535188119642,108.71465343594771,198.76505924126880,237.87101060732255,297.78627847940606,94.056474534722227,77.594333333333338,16.230333333333306,4.1216731517316116,17.145384652879557,0.23003866010640034
20190820073000,400.30564897536965,15.103533359006505,0.14529250952447326,0,-42.657170088877010,0,3.7355037114534890,0,4.2718447768476464,0,212.67030602449356,2.8181695661613779,5.7169919031822207,0.75131732217590941,0.62296356350172710,0.47047952132782933,0.35900500323893830,90.647905469389684,0.20960219545741174,100.85622787625358,184.39735100186400,220.67653340864206,276.26083339754769,94.060212831163199,79.025333333333336,15.874000000000024,3.7716356038312528,16.780741634792719,0.24889602110380388
20190820080000,400.84340426151789,15.177733044726926,0.13196790982518730,0,-36.481821332967961,0,0.17230404575353553,0,3.1275334423469161,0,213.94115581320455,2.6299998357756724,5.1291726439944627,0.70593001548887746,0.60248583795662980,0.43034571221208701,0.34202365849665911,91.658444209397317,0.20729132120761021,104.19474933092454,190.50123298780886,227.98132119260623,285.40556088541905,94.068763720269104,80.395666666666671,15.683333333333337,3.4824770495778421,16.622692075093596,0.22241096877758876
20190820083000,401.25938467326495,15.194610837640166,8.49306812591289206E-002,0,-35.039011885600353,0,-0.67496326887976010,0,3.1914421117831617,0,210.61921737336706,2.8361494918939516,5.4054431630007160,0.66378364929798217,0.44837469751026693,0.34193636724342036,0.27427111652417613,49.213140661775597,0.38607574612196038,104.96456847710556,191.90870790825173,229.66570919826577,287.51421479175286,94.072613891764405,81.640000000000001,15.461666666666645,3.2154292122162405,16.419646803947899,0.27070334377357597
20190820090000,401.10170499037946,15.164476518703415,0.13049594426074876,0,-38.687547105807596,0,1.3739914640383653,0,3.2242878988921109,0,211.45606719763919,3.1701829071213630,6.2573228332849835,0.75916799887392195,0.64629464352443289,0.44946651690477618,0.33999546096438699,84.888888841930935,0.22382198965260733,100.15566516245936,183.11649892803041,219.14368061044752,274.34188358913821,94.046111769314251,81.676666666666662,15.419333333333327,3.2003039239452917,16.362354093763543,0.26413993569854494
20190820093000,402.54753803966867,15.050262125252909,7.87807343999578080E-002,0,-35.020788690038557,0,-1.2347178430371657,2,2.8064840357880785,0,199.84947993122998,2.9356321755005479,4.8006970073170168,0.58796657791698004,0.55777386444852717,0.35824413812665035,0.26400028353132443,43.895478724661892,0.43284640131570518,98.083316025090312,179.32758376306197,214.60931686041613,268.66539824127545,94.028483465711801,83.230000000000004,15.005666666666684,2.8521551272013039,15.962112616645015,0.31763594098564818
20190820100000,403.58526176539181,15.082397747073845,4.20236070646117857E-002,0,-29.587668100574000,0,-2.9635111905647258,0,2.0438033799124367,0,194.45973885689907,2.5901594011142417,4.6909796382856781,0.59633557120858582,0.49391795420810380,0.30994169052647746,0.19277960820165499,20.227499082624163,0.93931533119293975,253.60395367724064,2425.0000000000000,4493.0000000000000,-9999.,94.009091940469574,84.303333333333327,14.836666666666645,2.6407021285879999,15.814289803808379,0.31925347966682643
20190820103000,405.70585670365517,15.197590236736351,2.82759109165379892E-002,0,-24.988065388417986,0,-4.2238887102634424,0,2.7086882596244255,0,168.10449609100158,2.2025241361849761,3.6986931127604836,0.46619156207618062,0.47634789059598576,0.24102198341475914,0.15814209153745812,13.216209732063215,1.4376285171916581,277.72706703651301,2508.0000000000000,4570.0000000000000,-9999.,93.954514592881921,85.706666666666663,14.689666666666653,2.3819233422150434,15.700966169569199,0.36782276351985382
20190820110000,412.45094762793826,15.303868660841962,9.46770970731276862E-002,0,-23.692325082498471,1,-2.9235250710675778,2,1.4262117107344368,1,145.08088916557688,2.6998587082919059,4.5692087135647457,0.57565137932555299,0.68572540501031098,0.31040194011807110,0.28914301757713079,85.148764446329324,0.22313888079933344,118.30566074287243,216.30047949321781,258.85643004008159,324.05753338876048,93.878260921103575,90.273333333333341,13.982666666666660,1.5484147465434785,14.978645357868913,0.36444007584864213
20190820113000,416.40655155490094,15.230966492729817,8.95660638427709654E-002,0,-14.038720121342234,1,-0.95095052923544610,0,-3.7964972101229284,2,115.41625715654834,2.4789802872375994,4.7387132811356159,0.61034010395783367,0.47429387340111456,0.35881608096318640,0.28116737688681553,132.02989514381454,0.14390680216252622,103.02184526004517,188.35679026767434,225.41497095491818,282.19279492203123,93.777196949547417,92.286666666666662,13.553333333333342,1.1941099835197020,14.495369865211444,0.29023294024735086
20190820120000,418.22313436389032,15.099603109914627,8.17504174389826199E-002,0,-20.920116361100821,0,-6.4886327571644138,0,-0.22663686010778833,2,139.62935908292354,2.2974902882982549,4.6339013873142605,0.55406851982467908,0.56378185721709329,0.33769275279694327,0.26852344193590744,77.212060842151899,0.24607554561770548,104.23732837479523,190.57908105989401,228.07448545221712,285.52219148317863,93.839998764322928,91.549999999999997,13.553666666666686,1.3081825901991011,14.496225867377461,0.24998176288485732
20190820123000,415.44096948695790,15.467082754589773,0.10821371857792755,0,-9.5961257291835533,0,11.553835337955078,0,-1.3879183048260630,0,141.42288141925499,2.2867275514490064,4.5859615649639967,0.62180925329924952,0.61466262503076341,0.39741708809100057,0.30938349508597990,257.61025634789894,7.37548274255850067E-002,102.48383848811730,187.37314230013104,224.23779556496518,280.71911102252352,93.909433817057291,88.006666666666661,14.544333333333327,1.9799692382884724,15.492896917555186,0.28229943445570937
20190820130000,409.44258739152332,15.752874754450783,7.62258350091440384E-002,0,-3.2719407231715287,2,19.117478583950643,0,-1.1126640889283290,1,152.75958769877121,1.8825362491445166,4.6770271102589689,0.75929697426140952,0.64019363210308766,0.43337552351834840,0.26025206724518030,449.72920337081359,4.22476456000434528E-002,83.268117562089742,152.24067590749453,182.19320625009877,228.08427439277722,93.901731576605911,82.674333333333337,15.800000000000011,3.1007671421805938,16.781566601223403,0.43915083051792991
20190820133000,401.95972294789090,16.258698783851912,0.19938958241964508,1,50.328900887188851,1,68.756373396615160,0,-9.5938514537337198,1,168.70459615131978,1.7005791139917450,4.8665982434717883,0.75540769906711069,0.73384327874237598,0.49075116013548692,0.42205890698614074,-124.70860026303603,-0.15235517005182561,110.98500035756895,202.91597750400467,242.83859960850032,304.00511043332563,93.892611323133679,77.612666666666669,17.288666666666643,4.4045692493960384,18.311896144443153,0.47594774376202514
20190820140000,396.56872319067497,16.762183775160672,9.92429808609881919E-002,0,-1.4578507784423314,2,12.617764583860616,2,-2.4815934022890707,2,182.59243336334728,1.9117927436192439,4.3411271588163176,0.70197526309858971,0.60492050142466480,0.45230097600155972,0.29820094869169789,1518.8207382476455,1.25097054059990238E-002,89.726369663804860,164.04842050329336,196.32406079122052,245.77442745006164,93.908463404730909,75.869333333333330,18.135666666666680,5.0078909587961746,19.190140838623051,0.25102779525147345
20190820143000,390.79940215625123,17.557792463842294,0.17829713267251063,1,64.252721671796436,1,86.454957265928670,0,-15.469160611989476,0,168.75206665540611,1.5490771886562340,4.6429166496331753,0.76426819352550224,0.77026486072293254,0.51367283863054924,0.40081935235388122,-83.683411010647944,-0.22704619434767573,102.67496502629709,187.72258256860658,224.65598631804053,281.24263622105383,93.883902861545124,72.468999999999994,19.608000000000004,6.2639350204468949,20.699153789944205,0.48791996805177024
20190820150000,385.76879443177131,17.620246675974851,0.27649050592657770,0,92.502521616200227,1,199.08292958054039,0,-20.161113681921361,1,179.99610142989920,2.5625630822712830,6.6029108224173676,1.0706121948351606,1.1753399434694018,0.68751087173344239,0.50006426824430950,-112.88239494120369,-0.16831676905771184,97.062595964011649,177.46138194944365,212.37594992410882,265.86948785798040,93.884746609809028,67.992000000000004,20.696666666666658,7.7897626283937642,21.763062961154560,0.44440660891779227
20190820153000,387.66330417541741,16.780456746249001,0.46576173087893374,0,33.981886640046334,1,133.23666147869307,0,-10.803248361455589,0,214.85283443759528,3.2590717815317309,8.8087628812702530,1.2731674077448760,1.1831943204876203,0.76946584258535378,0.64864468682641907,-671.42610673917886,-2.82979762170324882E-002,109.22169580188789,199.69209439907587,238.98043492313460,299.17514607372425,94.061527077572677,63.710666666666668,20.990666666666641,8.9928867138138724,21.943765657390259,0.36259782666689266
20190820160000,387.51778518215207,17.193401162981651,0.46388891024199630,0,-50.033995492286458,1,107.13582284615580,1,-5.6379984993981820,0,230.33872303519121,3.6707893007664887,9.8037722696958340,1.5769932600451793,1.4378520416890928,0.86198865852732687,0.64560414886492967,450.02871983780591,4.22195276933608962E-002,99.363460597558586,181.66809632270471,217.41031261905979,272.17191255284922,94.171400125310782,70.725666666666669,19.711666666666645,6.7035872607040208,20.734920179688174,0.33815212667293115
20190820163000,384.98035027730879,17.745956161088358,0.55799006727050005,0,66.374254925882752,0,92.452578012420986,0,-17.704414462464328,1,237.37571566559566,3.3978900110023926,8.8883041165468946,1.4542501847417482,1.4018458939413141,0.87681267335452540,0.70792839435291877,-447.09760336550676,-4.24963136840331296E-002,105.51662958830403,192.91805169038329,230.87363591547827,289.02639570390426,94.107302251302102,74.659666666666666,19.338666666666654,5.6697705554505182,20.380845907423236,0.23834603287870804
20190820170000,382.71309165277984,17.758307447029008,0.40650660237005126,0,39.227124579999476,0,93.046709907924154,0,-17.198420491801226,0,218.66703709598448,2.6490431512271897,7.4335130030722993,1.3003393325973138,1.2108120137962710,0.76840708186683526,0.60466037286498664,-470.86636518399547,-4.03511514197357687E-002,103.36916754128129,188.99180617053406,226.17492280531664,283.14416445956294,93.960309170572927,74.838333333333338,19.286333333333346,5.6114847185451344,20.356201370239262,0.17295447543613829
20190820173000,379.82457916601970,17.962717172078243,0.27952190778387037,0,20.613422690906837,0,100.37495446114089,0,-9.2398446593434524,0,181.80704935818352,2.0376072278010549,6.5718895190364366,1.1376478802034671,0.89127784778737584,0.59075884659602951,0.50209122529076433,-512.47940374404106,-3.70746606813677770E-002,109.93926216112013,201.00403455980469,240.55049222133457,301.14067150129398,93.812174493923607,74.091333333333338,19.606333333333339,5.8942067715252398,20.713335404290206,0.27844736532737757
20190820180000,377.17425569199105,18.035372683332902,0.23456040096910888,0,65.083803173932651,1,140.84827864045116,0,-14.436921735973106,0,169.32365415787118,2.1703518309677019,6.2359250345996085,0.99044264337289911,0.97441750765558377,0.62706434411644096,0.46065035931593573,-125.26847919543440,-0.15167422900023908,97.836823928128211,178.87691759519305,214.06998455922235,267.99021819967987,93.724737344531675,71.512000000000000,20.228333333333353,6.7356400210019478,21.315188086330977,0.35023525626885915
20190820183000,376.21126117173111,17.688128433973731,0.53001940828254568,1,139.87379968689078,0,305.45655831856936,0,-21.623371860296842,0,158.41786722962397,2.1941218439747785,7.7037249421303837,1.1476506760946203,1.0997002783138523,0.82378466285266772,0.69389341696985563,-199.17025423405903,-9.53957711861519175E-002,109.15362218378745,199.56763411422131,238.83148774976399,298.98868188737879,93.693805176866334,65.266000000000005,21.392333333333340,8.8222029217438429,22.332368839687774,0.43814228383374065
20190820190000,377.54909286022246,16.371614769313496,0.42151988745687913,0,101.08921196269762,0,317.99797503593402,0,-22.108563992633758,0,204.00886216579380,2.6214036927337814,6.6019360383946690,1.2830646415970541,1.0478523885342694,0.71293211267663326,0.61902094947565023,-195.69998265852556,-9.70873872439368679E-002,111.83574515135243,204.47141031817637,244.70005542397993,306.33543222592351,93.751478956261110,58.511333333333333,21.924333333333323,10.886182408552513,22.734868488706070,0.33782346121285872
20190820193000,377.84155534921348,16.428442403849449,0.28780364522579405,0,93.291707033573005,0,198.54676925707071,0,-18.869945962596017,0,222.32727099138089,2.3113319326716626,6.9091575259885039,0.96839683738545701,1.4512561286470540,0.67952599680786885,0.51176696623654916,-119.82443868431048,-0.15856531612935329,99.803974898204174,182.47349695911510,218.37417147865025,273.37854946940342,93.746935507378467,57.686666666666667,22.213333333333310,11.299825669815560,23.021353251139317,0.29402971546176504
20190820200000,379.90873990390173,15.936897255958790,0.35037777845378815,0,68.284762093079522,0,197.26347319577101,0,-18.477816405577240,0,236.15531851538898,2.6045412946170248,6.7335341821193202,1.0596019455034502,0.87635964742305106,0.63028524937119568,0.56469192255738521,-219.88726492145187,-8.64079145592500791E-002,114.67650422572488,209.66522391976676,250.91572378658043,314.11671143785958,93.732966995442709,55.825333333333333,22.250666666666689,11.823731868585336,23.066369650099034,0.23320908673969534
20190820203000,378.18573785378504,16.790867259261404,0.29926623064416796,0,72.718406307522272,0,190.97527665842100,0,-21.026739846780650,0,234.76247479383977,1.7765998890924644,5.2843801353676296,0.96229623939048736,0.87443110971345972,0.55274929786844584,0.52212228475631539,-163.20863984086401,-0.11641540557243710,119.63276046093470,218.72684103458198,261.76016510370994,327.69266511868562,93.707836543402777,58.454999999999998,22.347666666666669,11.185685833746286,23.168001963297570,0.24821382952743856
20190820210000,380.42445871010426,16.698087751534171,8.12583943848134427E-002,0,73.529277179067890,0,155.92692165063815,0,-11.339974482150508,0,232.18053970359952,1.7579818849459674,5.3714156756270732,0.85967321272154784,0.77294112373564738,0.46446757113064119,0.27217655502842819,-22.859023054118062,-0.83118162814823981,81.652813234660996,149.28738442206276,178.65887062320706,223.65970558743132,93.677759133897581,57.581333333333333,22.499000000000024,11.526435066377781,23.255118454827198,0.30622645561883172
20190820213000,379.80523316412672,17.345106518244474,0.10959248608723077,1,113.96657865256587,0,203.73420642803546,0,-9.8053601437967366,0,257.51195333606063,1.2080783689329921,3.8127215217210080,0.73789623845650187,0.46663954137573288,0.42155024025851623,0.31637889541038344,-23.164109836285114,-0.82023441152216003,99.527118646504888,181.96731543223615,217.76840147154201,272.62019730378790,93.663241198559447,58.274666666666668,22.925999999999988,11.635435678982891,23.683765255124513,0.36918562979667596
20190820220000,380.49895554618831,17.575010191230980,0.28850041052672021,1,85.537579432466842,0,194.45479749686035,0,-8.1302250707868620,0,202.44287641458300,1.7986642894600167,4.8550309825003044,0.90492567223466758,0.76602288838168264,0.53042465457268229,0.51348403949736521,-131.97325054009349,-0.14396856879893094,122.00496292284080,223.06398371011699,266.95061716462959,334.19049517750932,93.684929116102438,58.248333333333335,23.154999999999973,11.805166331774640,23.991430747138111,0.32724174228117270
20190820223000,382.18808530083533,17.510384205865932,0.24004265477345613,0,60.619995976792815,0,144.89319412016920,0,-9.4982853991839633,0,234.03163447806349,1.8727424504990400,5.1002730179528024,1.0672844201245550,0.87424742042489378,0.51188105445826870,0.46831916831513731,-141.29876880844532,-0.13446684751908741,116.61467389541689,213.20881622347528,255.15649872801671,319.42565843587664,93.706474615451384,58.051000000000002,23.153999999999996,11.860245012384860,24.007407383388966,0.22684062697501653